Regional Weather Roundup
Issued by NWS

Home | Current Version | Previous Version | Text Only | Print | Product List | Glossary Off
Versions: 1 2 3 4 5 6 7 8 9 10 11 12 13 14 15 16 17 18 19 20 21 22 23 24 25 26 27 28 29 30 31 32 33 34 35 36 37 38 39 40 41 42 43 44 45 46 47 48 49 50

177
ASUS44 KMEG 241900
RWRTN
TENNESSEE HOURLY STATE WEATHER ROUNDUP
NATIONAL WEATHER SERVICE MEMPHIS TN
100 PM CST FRI FEB 24 2017

TNZ002-004-019-021-049-052-054-088>092-242000-
WEST TENNESSEE

CITY           SKY/WX    TMP DP  RH WIND       PRES   REMARKS
MEMPHIS INTL   CLOUDY    66  57  72 SW12G22   29.69F
NWS MEMPHIS      N/A     66 N/A N/A MISG        N/A
JACKSON        MOSUNNY   73  55  53 W24G35    29.67S
UNION CITY     MOSUNNY   72  52  49 SW23      29.63R
PARIS          SUNNY     75  52  43 SW14      29.61F
$$

TNZ008-025-027-028-033-062-065-066-242000-
NORTH MIDDLE TENNESSEE

CITY           SKY/WX    TMP DP  RH WIND       PRES   REMARKS
NASHVILLE      MOSUNNY   80  52  37 S22G35    29.67F
CLARKSVILLE    SUNNY     80  48  32 S20G31    29.60F
SMYRNA         MOSUNNY   78  57  48 S22G30    29.67F
CROSSVILLE     MOSUNNY   69  54  58 S13G20    29.78F
$$

TNZ061-075-076-078-094-096-097-242000-
SOUTH MIDDLE TENNESSEE

CITY           SKY/WX    TMP DP  RH WIND       PRES   REMARKS
TULLAHOMA      SUNNY     75  52  43 S15G26    29.74F
WINCHESTER     MOSUNNY   75  55  50 S17       29.75F
MCMINNVILLE    SUNNY     77  55  47 SW12      29.74F
COLUMBIA       MOSUNNY   79  55  44 SW23      29.66F
SHELBYVILLE    MOSUNNY   79  57  47 S23       29.71F
$$

TNZ017-018-042-046-047-242000-
NORTHEAST TENNESSEE

CITY           SKY/WX    TMP DP  RH WIND       PRES   REMARKS
TRI CITIES     MOSUNNY   74  47  38 SW7       29.80F
$$

TNZ012-013-036-069-073-074-242000-
CENTRAL EAST TENNESSEE

CITY           SKY/WX    TMP DP  RH WIND       PRES   REMARKS
KNOXVILLE      PTSUNNY   77  52  41 SW18G25   29.76F
OAK RIDGE      PTSUNNY   75  53  46 S12G20    29.78F
GATLINBURG     SUNNY     79  48  34 W7        29.76F
$$

TNZ083-085-099-242000-
SOUTHEAST TENNESSEE

CITY           SKY/WX    TMP DP  RH WIND       PRES   REMARKS
CHATTANOOGA    PTSUNNY   76  54  46 S16G23    29.78F
$$

SKY/WX REPORTED AS FAIR MEANS FEW OR NO CLOUDS BELOW
12 THOUSAND FEET.





USA.gov is the U.S. government's official web portal to all federal, state and local government web resources and services.